[[{"header":{"parameterUnit":"m.s-1","parameterCategory":1,"la1":30.2991,"la2":30.254,"lo1":-89.0895,"lo2":-89.0444,"dy":0.0017,"dx":0.0017,"nx":28,"ny":28,"refTime":"2024-05-30T09:00:00:Z","depth":0,"parameterNumber":2,"parameterNumberName":"U-component_of_WINDS"},"data":[0,0,0,0,0,0,0,0,0,0,0,0,0,0,0,0,0,0,0,0,0,0,0,0,0,0,0,0,0,0,0,0,0,0,0,0,0,0,0,0,0,0,0,0,0,0,0,0,0,0,0,0,0,0,0,0,0,0,-5.997,-5.9971,0,-6.0045,-6.0046,-6.0047,-5.9992,-5.999,-5.9987,-5.9985,-6.0057,-6.0061,-6.0065,0,0,0,0,0,0,0,0,0,0,0,0,0,-5.9775,-5.9779,-5.997,-5.9971,-5.9972,-6.0045,-6.0046,-6.0047,-5.9992,-5.999,-5.9987,-5.9984,-6.0055,-6.006,-6.0065,0,0,0,0,0,0,0,0,0,0,0,0,0,-5.9856,-5.978,-5.997,-5.9954,-5.9953,-6.0045,-6.0046,-6.0048,-5.9993,-5.9989,-5.9986,-5.9982,-6.0054,-6.006,-6.0066,-6.0177,0,0,-6.0085,-6.0088,0,0,0,0,0,0,0,0,-5.9852,-5.9863,-5.9955,-5.9955,-5.9954,-6.0006,-6.0004,-6.0091,-5.9994,-5.9978,-5.9985,-5.9981,-6.0042,-6.0049,-6.0071,-6.018,-6.0183,-6.0086,-6.0089,-6.0092,-6.0094,0,0,0,0,0,0,0,-5.9846,-5.986,-6.0,-5.9956,-5.9956,-5.9941,-5.9949,-6.002,-6.0029,-5.9979,-5.9975,-5.9985,-6.0041,-6.0065,-6.0072,-6.0184,-6.0085,-6.0091,-6.0095,-6.0097,-6.0389,-6.0392,0,0,0,0,0,0,-5.9843,-5.9855,-5.9997,-6.0002,-5.9893,-5.9948,-5.9956,-5.9993,-6.0028,-6.003,-5.9988,-5.9982,-6.0056,-6.0065,-6.0075,-6.0206,-6.0092,-6.0098,-6.0101,-6.0385,-6.039,-6.0394,0,0,0,0,0,0,-5.9839,-5.9856,-5.9994,-5.9928,-5.9944,-5.9955,-5.9997,-5.9996,-6.002,-6.0035,-6.0036,-6.0011,-6.0054,-6.0066,-6.0152,-6.0208,-6.0101,-6.0106,-6.038,-6.0386,-6.0392,-6.0471,0,0,0,0,0,0,-5.9833,-5.9855,-5.9897,-5.9929,-5.9948,-6.0072,-6.0,-6.0,-6.0031,-6.0025,-6.0057,-6.0059,-6.0052,-6.0143,-6.0159,-6.0215,-6.0111,-6.0375,-6.0383,-6.039,-6.0463,-6.0479,-6.0492,0,0,0,0,0,-5.9827,-5.9915,-5.99,-5.9917,-6.0002,-6.0075,-6.0085,-6.0077,-6.0036,-6.0079,-6.0089,-6.0058,-6.0201,-6.0153,-6.0169,-6.0228,-6.0371,-6.0381,-6.0389,-6.0457,-6.0476,-6.0492,0,0,0,0,0,0,-5.9886,-5.9919,-5.9902,-6.0004,-6.0038,-6.0065,-6.0118,-6.0098,-6.0142,-6.0133,-6.012,-6.0128,-6.0218,-6.0232,-6.0178,-6.0338,-6.0279,-6.0292,-6.0325,-6.0343,-6.0357,-6.035,-6.0116,0,0,0,0,0,-5.9912,-5.997,-5.9995,-6.0082,-6.0101,-6.0107,-6.0138,-6.013,-6.0163,-6.0176,-6.0193,-6.0225,-6.0277,-6.0311,-6.036,-6.0466,-6.0472,-6.0515,-6.053,-6.0542,-6.0552,-6.0609,-6.0628,-6.0423,-6.0423,-6.0423,0,0,-5.9964,-5.999,-6.0026,-6.0095,-6.012,-6.0179,-6.0119,-6.0184,-6.0227,-6.0185,-6.0268,-6.0282,-6.0317,-6.0414,-6.0458,-6.0428,-6.061,-6.0553,-6.0562,-6.0566,-6.062,-6.0639,-6.0657,-6.043,-6.0428,-6.0427,0,0,-6.0089,-6.0115,-6.0191,-6.0218,-6.0258,-6.0262,-6.0281,-6.0313,-6.0321,-6.0405,-6.0375,-6.0427,-6.0517,-6.0543,-6.0568,-6.0708,-6.0681,-6.0725,-6.0799,-6.0855,-6.0871,-6.0885,-6.0933,-6.0951,-6.0736,-6.0736,-6.0736,0,-6.0148,-6.0238,-6.0232,-6.03,-6.0331,-6.03,-6.0376,-6.0402,-6.0455,-6.0476,-6.0444,-6.0558,-6.0579,-6.0682,-6.0717,-6.0739,-6.0758,-6.0719,-6.0869,-6.0884,-6.0897,-6.0943,-6.0961,-6.0741,-6.074,-6.074,-6.0739,0,-6.0308,-6.0371,-6.0427,-6.0482,-6.052,-6.0591,-6.0595,-6.0634,-6.0624,-6.0632,-6.0718,-6.0743,-6.0797,-6.0822,-6.0811,-6.0923,-6.0904,-6.0872,-6.0811,-6.0921,-6.0964,-6.0982,-6.0748,-6.0746,-6.0744,-6.0743,0,0,-6.0468,-6.0522,-6.0542,-6.0567,-6.0611,-6.0658,-6.0729,-6.0784,-6.0817,-6.0856,-6.0914,-6.0993,-6.0964,-6.0993,-6.0986,-6.1035,-6.1143,-6.0996,-6.0997,-6.1021,-6.1268,-6.129,-6.1311,-6.1128,-6.1131,-6.1134,-6.1264,0,-6.0594,-6.0719,-6.0717,-6.0832,-6.089,-6.0863,-6.0925,-6.0958,-6.0968,-6.1018,-6.1029,-6.1084,-6.1042,-6.106,-6.1108,-6.112,-6.1192,-6.1111,-6.1179,-6.1182,-6.1168,-6.1333,-6.1357,-6.1479,-6.1281,-6.1284,-6.1286,0,-6.0756,-6.0803,-6.0924,-6.0961,-6.0985,-6.1041,-6.1092,-6.114,-6.1178,-6.1182,-6.1217,-6.1202,-6.1273,-6.1215,-6.1313,-6.1258,-6.1286,-6.1297,-6.1301,-6.1304,-6.1238,-6.1338,-6.1517,-6.1535,-6.1313,-6.1311,-6.1309,0,-6.0858,-6.0952,-6.1037,-6.1059,-6.1105,-6.1144,-6.1165,-6.1199,-6.1233,-6.1278,-6.1299,-6.1352,-6.1379,-6.142,-6.142,-6.1378,-6.1518,-6.146,-6.1522,-6.1522,-6.1549,-6.1547,-6.1732,-6.1573,-6.1573,-6.1573,-6.1572,0,-6.0997,-6.1071,-6.1083,-6.1135,-6.1218,-6.1217,-6.1299,-6.1316,-6.1347,-6.1401,-6.1382,-6.1433,-6.1431,-6.1483,-6.1484,-6.1564,-6.1577,-6.1581,-6.158,-6.1581,-6.158,-6.1597,-6.1587,-6.1577,-6.1576,-6.1575,-6.1575,0,-6.1122,-6.1134,-6.1225,-6.1262,-6.1274,-6.1333,-6.1364,-6.1413,-6.1424,-6.1493,-6.1509,-6.1525,-6.1585,-6.159,-6.1659,-6.166,-6.1756,-6.1747,-6.1744,-6.1741,-6.1802,-6.1796,-6.2002,-6.2029,-6.1855,-6.1857,-6.1858,0,-6.1208,-6.1266,-6.1311,-6.1347,-6.137,-6.1428,-6.1464,-6.1465,-6.1503,-6.1552,-6.1595,-6.1654,-6.17,-6.1798,-6.1814,-6.1868,-6.1858,-6.1927,-6.1865,-6.1865,-6.1856,-6.1852,-6.1857,-6.1937,-6.1939,-6.1941,-6.1942,0,-6.1359,-6.1363,-6.1415,-6.1471,-6.1515,-6.1558,-6.1599,-6.1629,-6.1636,-6.1679,-6.1741,-6.1778,-6.1851,-6.1909,-6.1962,-6.1982,-6.1963,-6.1963,-6.1979,-6.1979,-6.1974,-6.1975,-6.1773,-6.1956,-6.1955,-6.1954,-6.1953,-6.1953,-6.1465,-6.1516,-6.1556,-6.1615,-6.1647,-6.1687,-6.1735,-6.1753,-6.1806,-6.1866,-6.1865,-6.1933,-6.1971,-6.2041,-6.2065,-6.2118,-6.2095,-6.212,-6.2125,-6.2131,-6.2136,-6.1969,-6.2128,-6.2128,-6.2128,-6.2127,-6.2127,0,-6.1613,-6.1639,-6.1694,-6.1753,-6.1801,-6.1783,-6.1828,-6.1868,-6.1929,-6.1967,-6.2015,-6.2087,-6.2145,-6.2168,-6.2224,-6.2262,-6.2255,-6.2277,-6.2272,-6.2277,-6.2154,-6.2133,-6.2282,-6.2282,-6.2282,-6.2282,-6.2282,-6.2282,-6.1695,-6.1779,-6.1788,-6.1888,-6.1912,-6.1981,-6.2008,-6.2044,-6.2075,-6.2157,-6.2206,-6.2222,-6.2254,-6.2313,-6.2365,-6.237,-6.239,-6.2416,-6.2417,-6.2301,-6.2285,-6.227,-6.225,-6.2421,-6.2421,-6.2534,-6.2535,-6.2536]},{"header":{"parameterUnit":"m.s-1","parameterCategory":1,"la1":30.2991,"la2":30.254,"lo1":-89.0895,"lo2":-89.0444,"dy":0.0017,"dx":0.0017,"nx":28,"ny":28,"refTime":"2024-05-30T09:00:00:Z","depth":0,"parameterNumber":3,"parameterNumberName":"V-component_of_WINDS"},"data":[0,0,0,0,0,0,0,0,0,0,0,0,0,0,0,0,0,0,0,0,0,0,0,0,0,0,0,0,0,0,0,0,0,0,0,0,0,0,0,0,0,0,0,0,0,0,0,0,0,0,0,0,0,0,0,0,0,0,3.0027,3.0026,0,2.9884,2.9882,2.9881,2.9802,2.9802,2.9802,2.9802,2.965,2.9646,2.9642,0,0,0,0,0,0,0,0,0,0,0,0,0,3.023,3.0227,3.0027,3.0026,3.0024,2.9884,2.9882,2.988,2.9802,2.9802,2.9802,2.9802,2.9651,2.9646,2.9642,0,0,0,0,0,0,0,0,0,0,0,0,0,3.012,3.0226,3.0028,2.9968,2.9961,2.9885,2.9882,2.988,2.9802,2.9802,2.9802,2.9801,2.9652,2.9647,2.9641,2.9611,0,0,2.9623,2.9621,0,0,0,0,0,0,0,0,3.0126,3.0112,2.9979,2.9972,2.9964,2.9861,2.9898,2.9789,2.9802,2.9862,2.9802,2.9801,2.972,2.9708,2.9682,2.9604,2.9597,2.9623,2.9619,2.9617,2.9615,0,0,0,0,0,0,0,3.0134,3.0118,2.997,2.9977,2.9968,2.9947,2.9931,2.9877,2.9794,2.9857,2.9851,2.9836,2.9716,2.9688,2.9678,2.9595,2.9623,2.9618,2.9614,2.9612,2.9486,2.9486,0,0,0,0,0,0,3.0152,3.0125,2.9975,2.9966,3.0046,2.9944,2.9926,2.9894,2.9795,2.9779,2.9836,2.9832,2.9698,2.9685,2.9672,2.9631,2.9617,2.9611,2.9608,2.9486,2.9486,2.9486,0,0,0,0,0,0,3.0156,3.0139,2.9981,3.0044,3.0022,2.9941,2.9906,2.9892,2.9863,2.9779,2.9763,2.9823,2.9697,2.968,2.9627,2.9624,2.9609,2.9604,2.9486,2.9486,2.9486,2.9548,0,0,0,0,0,0,3.0162,3.0141,3.0129,3.0044,3.0019,2.9939,2.9905,2.9889,2.9854,2.9848,2.9762,2.9748,2.9696,2.9636,2.9622,2.9616,2.9599,2.9486,2.9486,2.9486,2.9545,2.955,2.9554,0,0,0,0,0,3.017,3.0151,3.0129,3.0112,3.0003,2.9939,2.9925,2.9867,2.9854,2.9841,2.9787,2.975,2.9628,2.9632,2.9614,2.9607,2.9485,2.9486,2.9486,2.9544,2.9549,2.9554,0,0,0,0,0,0,3.0235,3.0139,3.0113,3.0067,3.0012,2.9926,2.9908,2.9874,2.9821,2.9817,2.9746,2.9727,2.9681,2.9638,2.9645,2.9573,2.9553,2.9549,2.9602,2.9607,2.9611,2.9621,2.9594,0,0,0,0,0,3.0245,3.0203,3.012,3.0087,3.0061,2.999,2.996,2.992,2.986,2.9836,2.9778,2.972,2.9668,2.9635,2.9583,2.954,2.952,2.9526,2.953,2.9534,2.9532,2.9506,2.9508,2.9487,2.9487,2.9487,0,0,3.0263,3.0205,3.0182,3.0099,3.0052,3.0009,2.9971,2.9926,2.9893,2.9828,2.9775,2.9731,2.9662,2.9614,2.959,2.9577,2.9534,2.9535,2.9538,2.9533,2.9507,2.9509,2.9511,2.9487,2.9487,2.9487,0,0,3.0274,3.0227,3.0194,3.0149,3.0079,3.0032,3.0025,2.9945,2.9913,2.986,2.9811,2.977,2.9682,2.9635,2.96,2.9596,2.956,2.9581,2.9602,2.9578,2.958,2.9581,2.958,2.958,2.9579,2.9579,2.958,0,3.0305,3.024,3.0181,3.014,3.0105,3.0047,3.0014,2.9972,2.9888,2.9865,2.9852,2.9742,2.9691,2.9632,2.9632,2.9605,2.9593,2.959,2.9585,2.9585,2.9585,2.9583,2.9583,2.9582,2.9582,2.9582,2.9582,0,3.0281,3.0237,3.0219,3.0142,3.0105,3.0067,3.0003,2.9972,2.9936,2.9891,2.9837,2.9774,2.9709,2.9692,2.9656,2.9628,2.9622,2.9599,2.9576,2.9591,2.9588,2.9587,2.9587,2.9586,2.9585,2.9584,0,0,3.0327,3.0221,3.0215,3.018,3.0101,3.0064,3.0025,2.9963,2.9938,2.9883,2.9848,2.9776,2.9754,2.9714,2.9672,2.9652,2.9653,2.963,2.9627,2.9636,2.9619,2.9637,2.9637,2.963,2.9629,2.9629,2.9625,0,3.0326,3.0255,3.0202,3.015,3.0108,3.0054,3.002,2.9967,2.9924,2.9881,2.9833,2.9784,2.9758,2.9734,2.9711,2.9658,2.9649,2.9658,2.9595,2.9594,2.9613,2.9635,2.9654,2.9653,2.9623,2.9623,2.9623,0,3.0315,3.0265,3.021,3.0136,3.0116,3.0087,3.0027,2.9987,2.9926,2.9896,2.9853,2.9811,2.9766,2.975,2.9687,2.9694,2.9666,2.9636,2.9635,2.9625,2.9608,2.9626,2.9651,2.9651,2.962,2.962,2.962,0,3.0355,3.0273,3.0229,3.0201,3.0114,3.0094,3.0057,2.9996,2.9963,2.991,2.9888,2.983,2.9798,2.9754,2.9697,2.969,2.964,2.9618,2.9613,2.9614,2.9603,2.9605,2.9623,2.9587,2.9587,2.9587,2.9587,0,3.0359,3.0327,3.0246,3.0219,3.0182,3.0122,3.0086,3.0044,2.999,2.9954,2.9903,2.9869,2.9797,2.9754,2.9709,2.9664,2.965,2.9624,2.9612,2.9628,2.9632,2.9607,2.9606,2.9587,2.9587,2.9587,2.9587,0,3.0396,3.034,3.0289,3.0212,3.0192,3.0168,3.0102,3.0073,3.0029,2.9983,2.9969,2.9898,2.9845,2.9785,2.9712,2.9682,2.964,2.9623,2.9661,2.9654,2.9652,2.9653,2.9655,2.9652,2.9619,2.962,2.962,0,3.0402,3.0376,3.0298,3.0271,3.0236,3.0192,3.0159,3.0099,3.0066,2.9996,2.9976,2.9921,2.9872,2.9791,2.9732,2.9676,2.9657,2.9662,2.9648,2.9665,2.9657,2.9659,2.9656,2.9665,2.9666,2.9666,2.9667,0,3.0418,3.0393,3.0348,3.0294,3.0256,3.021,3.0161,3.0142,3.0072,3.0038,2.9985,2.9948,2.9875,2.982,2.9757,2.9717,2.968,2.9672,2.9668,2.9683,2.9706,2.9694,2.9671,2.9672,2.9671,2.9671,2.9671,2.967,3.0439,3.0415,3.0356,3.0308,3.0266,3.0223,3.0193,3.0146,3.0101,3.0038,3.0006,2.9953,2.9893,2.9806,2.9767,2.9725,2.9712,2.9706,2.9704,2.9704,2.9708,2.9714,2.9713,2.9713,2.9713,2.9712,2.9712,0,3.0453,3.0414,3.037,3.0306,3.0268,3.0239,3.0185,3.0154,3.011,3.0058,3.0013,2.9953,2.99,2.9838,2.9781,2.9759,2.9741,2.9746,2.9746,2.9738,2.9723,2.9732,2.9762,2.9762,2.9762,2.9762,2.9762,2.9762,3.0456,3.0413,3.0381,3.0317,3.0277,3.0227,3.0199,3.0158,3.0117,3.0053,3.0009,2.997,2.9914,2.9853,2.9803,2.9787,2.9768,2.9778,2.9756,2.9743,2.9739,2.9735,2.9743,2.9774,2.9774,2.9774,2.9774,2.9774]}]]